Weather History for Williamtown, NW

Change the Weather History Date:

Saturday, August 17, 2013

  Actual Average Record
Temperature  
Mean Temperature 60 °F -  
Max Temperature 75 °F - - ()
Min Temperature 46 °F - - ()
Degree Days  
Heating Degree Days 4    
Growing Degree Days 10 (Base 50)    
Moisture  
Dew Point 47 °F    
Average Humidity 60    
Maximum Humidity 100    
Minimum Humidity 26    
Precipitation  
Precipitation 0.00 in - - ()
Sea Level Pressure  
Sea Level Pressure 29.86 in    
Wind  
Wind Speed 9 mph ()    
Max Wind Speed 30 mph    
Max Gust Speed 41 mph    
Visibility 6.2 miles    
Events      
T = Trace of Precipitation, MM = Missing Value Source: Averaged Metar Reports

Daily Weather History Graph

Daily Weather History Graph

Search for Another Location

Airport:

Trip Planner

Search our weather history database for the weather conditions in past years. The results will help you decide how hot, cold, wet, or windy it might be!

Date:

Astronomy

Aug. 17, 2013 Rise Set
Actual Time 6:28 AM EST 5:25 PM EST
Civil Twilight 6:02 AM EST 5:51 PM EST
Nautical Twilight 5:33 AM EST 6:20 PM EST
Astronomical Twilight 5:05 AM EST 6:48 PM EST
Moon 1:17 PM EST 2:37 AM EST
Length of Visible Light 11h 48m
Length of Day
10h 57m
Waxing Gibbous, 79% of the Moon is Illuminated
Aug 17
Waxing Gibbous
Aug 21
Full
Aug 28
Last Quarter
Sep 5
New
Sep 13
First Quarter

Hourly Weather History & Observations

Time (EST) Temp. Windchill Dew Point Humidity Pressure Visibility Wind Dir Wind Speed Gust Speed Precip Events Conditions
12:00 AM 54 °F - 48 °F 72% 29.95 in - NE 8.1 mph - -  
12:00 AM 53.6 °F - 48.2 °F 82% 29.95 in 6.2 mi NE 8.1 mph - N/A   Unknown
12:30 AM 53.6 °F - 48.2 °F 82% 29.92 in 6.2 mi NNE 8.1 mph - N/A   Unknown
1:00 AM 53 °F - 48 °F 78% 29.93 in - NNE 5.8 mph - -  
1:00 AM 53.6 °F - 48.2 °F 82% 29.92 in 6.2 mi NNE 5.8 mph - N/A   Unknown
1:30 AM 53.6 °F - 48.2 °F 82% 29.92 in 6.2 mi North 5.8 mph - N/A   Unknown
2:00 AM 53.6 °F - 48.2 °F 82% 29.92 in 6.2 mi NNE 6.9 mph - N/A   Unknown
2:30 AM 53.6 °F - 48.2 °F 82% 29.89 in 6.2 mi NNE 5.8 mph - N/A   Unknown
3:00 AM 53 °F - 47 °F 72% 29.91 in - North 4.6 mph - -   Overcast
3:00 AM 53.6 °F - 46.4 °F 77% 29.89 in 6.2 mi North 4.6 mph - N/A   Scattered Clouds
3:30 AM 51.8 °F - 48.2 °F 88% 29.89 in 6.2 mi NW 4.6 mph - N/A   Mostly Cloudy
4:00 AM 51.8 °F - 48.2 °F 88% 29.89 in 6.2 mi NNE 4.6 mph - N/A   Mostly Cloudy
4:30 AM 53.6 °F - 48.2 °F 82% 29.89 in 6.2 mi North 3.5 mph - N/A   Overcast
5:00 AM 53.6 °F - 48.2 °F 82% 29.89 in 6.2 mi Calm Calm - N/A   Overcast
5:30 AM 51.8 °F - 46.4 °F 82% 29.86 in 6.2 mi Calm Calm - N/A   Scattered Clouds
6:00 AM 48.2 °F - 46.4 °F 93% 29.89 in 6.2 mi West 4.6 mph - N/A   Mostly Cloudy
6:30 AM 46.4 °F 45.2 °F 46.4 °F 100% 29.89 in 6.2 mi West 3.5 mph - N/A   Unknown
7:00 AM 46 °F - 45 °F 93% 29.88 in - WSW 1.2 mph - -  
7:00 AM 46.4 °F - 44.6 °F 93% 29.86 in 6.2 mi WSW 1.2 mph - N/A   Unknown
7:30 AM 46.4 °F 43.5 °F 44.6 °F 93% 29.86 in 6.2 mi NW 5.8 mph - N/A   Unknown
8:00 AM 50.0 °F - 48.2 °F 94% 29.89 in 6.2 mi WNW 5.8 mph - N/A   Unknown
8:30 AM 57.2 °F - 46.4 °F 67% 29.86 in 6.2 mi NNW 5.8 mph - N/A   Unknown
9:00 AM 60 °F - 46 °F 49% 29.87 in - NNW 5.8 mph - -  
9:00 AM 60.8 °F - 46.4 °F 59% 29.86 in 6.2 mi NNW 5.8 mph - N/A   Unknown
9:30 AM 62.6 °F - 46.4 °F 55% 29.86 in 6.2 mi NNW 5.8 mph - N/A   Unknown
10:00 AM 61 °F - 44 °F 43% 29.87 in - WNW 8.1 mph - -  
10:00 AM 60.8 °F - 44.6 °F 55% 29.86 in 6.2 mi WNW 8.1 mph - N/A   Unknown
10:30 AM 62.6 °F - 46.4 °F 55% 29.86 in 6.2 mi WNW 6.9 mph - N/A   Unknown
11:00 AM 64.4 °F - 46.4 °F 52% 29.83 in 6.2 mi NNW 8.1 mph - N/A   Unknown
11:30 AM 66.2 °F - 42.8 °F 43% 29.83 in 6.2 mi NNW 11.5 mph - N/A   Unknown
12:00 PM 69 °F - 46 °F 32% 29.82 in - NNW 10.4 mph - -  
12:00 PM 69.8 °F - 46.4 °F 43% 29.80 in 6.2 mi NNW 10.4 mph - N/A   Unknown
12:30 PM 73.4 °F - 46.4 °F 38% 29.77 in 6.2 mi NW 24.2 mph - N/A   Unknown
12:47 PM 75.2 °F - 48.2 °F 38% 29.77 in 6.2 mi WNW 27.6 mph 39.1 mph N/A   Unknown
1:00 PM 75 °F - 47 °F 26% 29.78 in - WNW 26.5 mph - -  
1:00 PM 75.2 °F - 48.2 °F 38% 29.77 in 6.2 mi WNW 26.5 mph 39.1 mph N/A   Unknown
1:37 PM 73.4 °F - 48.2 °F 41% 29.77 in 6.2 mi WNW 26.5 mph 38.0 mph N/A   Scattered Clouds
2:00 PM 73.4 °F - 48.2 °F 41% 29.77 in 6.2 mi NW 29.9 mph 41.4 mph N/A   Scattered Clouds
2:30 PM 73.4 °F - 48.2 °F 41% 29.77 in 6.2 mi WNW 29.9 mph 41.4 mph N/A   Scattered Clouds
3:00 PM 73 °F - 49 °F 32% 29.77 in - WNW 28.8 mph - -  
3:00 PM 73.4 °F - 50.0 °F 44% 29.77 in 6.2 mi WNW 28.8 mph - N/A   Unknown
3:05 PM 71.6 °F - 50.0 °F 46% 29.74 in 6.2 mi WNW 27.6 mph 39.1 mph N/A   Unknown
3:30 PM 71.6 °F - 50.0 °F 46% 29.77 in 6.2 mi NW 21.9 mph - N/A   Unknown
3:44 PM 71.6 °F - 50.0 °F 46% 29.77 in 6.2 mi WNW 23.0 mph 34.5 mph N/A   Unknown
4:00 PM 71 °F - 49 °F 34% 29.78 in - NW 25.3 mph - -  
4:00 PM 71.6 °F - 48.2 °F 43% 29.77 in 6.2 mi NW 25.3 mph - N/A   Unknown
4:30 PM 69.8 °F - 48.2 °F 46% 29.77 in 6.2 mi WNW 21.9 mph 34.5 mph N/A   Unknown
5:00 PM 68.0 °F - 50.0 °F 52% 29.80 in 6.2 mi NW 18.4 mph - N/A   Unknown
5:30 PM 66.2 °F - 50.0 °F 56% 29.80 in 6.2 mi NW 16.1 mph - N/A   Unknown
6:00 PM 65 °F - 50 °F 48% 29.84 in - NW 8.1 mph - -  
6:00 PM 66.2 °F - 50.0 °F 56% 29.83 in 6.2 mi NW 8.1 mph - N/A   Unknown
6:30 PM 62.6 °F - 50.0 °F 63% 29.86 in 6.2 mi WNW 5.8 mph - N/A   Unknown
7:00 PM 62 °F - 50 °F 56% 29.87 in - WNW 6.9 mph - -  
7:00 PM 60.8 °F - 50.0 °F 68% 29.86 in 6.2 mi WNW 6.9 mph - N/A   Unknown
7:30 PM 59.0 °F - 50.0 °F 72% 29.86 in 6.2 mi WNW 9.2 mph - N/A   Unknown
8:00 PM 62.6 °F - 50.0 °F 63% 29.89 in 6.2 mi West 15.0 mph - N/A   Unknown
8:30 PM 60.8 °F - 50.0 °F 68% 29.92 in 6.2 mi West 9.2 mph - N/A   Unknown
9:00 PM 60 °F - 45 °F 46% 29.94 in - West 9.2 mph - -  
9:00 PM 60.8 °F - 44.6 °F 55% 29.92 in 6.2 mi West 9.2 mph - N/A   Unknown
9:30 PM 60.8 °F - 33.8 °F 36% 29.92 in 6.2 mi West 9.2 mph - N/A   Unknown
10:00 PM 54 °F - 36 °F 39% 29.96 in - West 5.8 mph - -  
10:00 PM 55.4 °F - 35.6 °F 47% 29.95 in 6.2 mi West 5.8 mph - N/A   Unknown
10:30 PM 55.4 °F - 37.4 °F 51% 29.95 in 6.2 mi WNW 5.8 mph - N/A   Unknown
11:00 PM 57.2 °F - 35.6 °F 44% 29.95 in 6.2 mi West 11.5 mph - N/A   Unknown
11:30 PM 55.4 °F - 35.6 °F 47% 29.95 in 6.2 mi WNW 12.7 mph - N/A   Unknown